{"data":{"norad_id":58540,"epoch":"2026-09-20T08:08:31.254432Z","epoch_age_seconds":160631,"freshness":"FRESH","line1":"1 58540U 23192K   26263.33925063  .00008050  00000+0  24953-3 0  9997","line2":"2 58540  53.1568 234.6028 0001836 100.1325 259.9885 15.34349599155848","mean_motion":15.34349599,"eccentricity":0.0001836,"inclination_deg":53.1568,"raan_deg":234.6028,"arg_perigee_deg":100.1325,"mean_anomaly_deg":259.9885,"bstar":0.00024953,"rev_number":15584,"period_min":93.850840834351,"perigee_km":461.59704092869,"apogee_km":464.10905247384,"semimajor_km":6840.9900467013,"source":"CELESTRAK","updated_at":"2026-09-21T09:00:33.913751Z"}}